Location: Caltech
(34.1382°N, 118.1253°W)
Time: 23:28:17
(UTC-07:00)

Lacrosse 5 - Visible Passes

Search period start: 25 July 2016 00:00
Search period end: 04 August 2016 00:00
Orbit: 716 x 722 km, 57.0° (Epoch: 21 July)

Date Brightness Start Highest point End Pass type
(mag) Time Alt. Az. Time Alt. Az. Time Alt. Az.
25 Jul 4.1 01:32:52 21° NNW 01:32:52 21° NNW 01:36:11 10° NNE visible
26 Jul 3.9 00:40:58 25° N 00:40:58 25° N 00:43:30 10° NNE visible
26 Jul 4.0 23:48:56 20° NNE 23:48:56 20° NNE 23:50:34 10° NE visible
27 Jul 4.5 01:28:04 12° NW 01:29:19 13° NNW 01:31:42 10° N visible
27 Jul 4.2 22:56:43 13° NE 22:56:43 13° NE 22:57:20 10° NE visible
28 Jul 4.1 00:35:50 21° NW 00:35:50 21° NW 00:39:29 10° NNE visible
28 Jul 3.5 23:43:14 32° NNW 23:43:14 32° NNW 23:46:48 10° NNE visible
29 Jul 5.3 04:57:23 10° NNE 04:57:45 10° NNE 04:58:08 10° NNE visible
29 Jul 2.5 22:49:52 51° N 22:49:52 51° N 22:53:51 10° NE visible
30 Jul 4.7 00:30:10 10° WNW 00:32:36 13° NNW 00:35:02 10° N visible
30 Jul 1.8 21:50:35 10° SSW 21:55:35 62° SE 22:00:38 10° NE visible
30 Jul 4.2 23:35:02 10° W 23:38:54 21° NW 23:42:47 10° NNE visible
31 Jul 4.8 04:51:44 10° N 04:54:50 16° NNE 04:57:55 10° ENE visible
31 Jul 2.6 20:58:09 10° S 21:02:33 30° ESE 21:06:58 10° ENE visible
31 Jul 3.3 22:40:42 10° WSW 22:45:23 36° NW 22:50:06 10° NNE visible
01 Aug 2.1 21:47:00 10° SW 21:52:03 69° NW 21:57:09 10° NE visible
01 Aug 4.9 23:33:23 10° WNW 23:35:52 13° NNW 23:38:21 10° N visible
02 Aug 4.2 04:47:30 10° NNW 04:51:44 26° NE 04:55:56 10° E visible
02 Aug 1.8 20:53:53 10° SSW 20:58:53 61° SE 21:03:54 10° NE visible
02 Aug 4.3 22:38:17 10° W 22:42:11 22° NW 22:46:06 10° NNE visible
03 Aug 4.9 03:55:03 10° N 03:58:06 16° NNE 04:01:10 10° ENE visible
03 Aug 2.0 05:36:38 10° NW 05:41:45 86° NE 05:46:49 10° SE visible
03 Aug 3.4 21:43:58 10° WSW 21:48:40 37° NW 21:53:24 10° NNE visible
